Welcome to the New NWS' Forecast!
Most changes are behind the scenes, but click here for differences you might notice.
Latest weather observations around

Mount Ida (KMWT)

Using English Units (Switch to International System of Units)
Date/ Time (CDT) Wind (mph) Vis. (mi) Weather Sky Cond. Temp (°F) Rel. Humidity Wind Chill (°F) Heat Index (°F) Pressure Precip. (in)
Air Dwpt 6 hour Altimeter (inHg) Sea level (inHg) 1 hr 3 hr 6 hr
Max Min
Jul 28 06:53 Calm 10 Cloudy OVC090 80 71     74%   84 29.91 29.86      
Jul 28 05:53 Calm 10 Mostly Cloudy BKN095 80 72     76%   84 29.9 29.85      
Jul 28 04:53 Calm 10 Cloudy OVC100 82 70     67%   86 29.88 29.83      
Jul 28 03:53 5 10 Cloudy OVC090 84 69     61%   88 29.86 29.81      
Jul 28 02:53 5 10 Clear CLR 84 70     63%   88 29.88 29.83      
Jul 28 01:53 5 10 Clear CLR 85 70     61%   89 29.87 29.82      
Jul 28 00:53 Calm 10 Clear CLR 83 70     65%   87 29.89 29.83      
Jul 27 23:53 Calm 10 Clear CLR 81 71     72%   85 29.9 29.85      
Jul 27 22:53 Calm 10 Partly Cloudy SCT120 82 72     72%   87 29.91 29.86      
Jul 27 21:53 Calm 10 Partly Cloudy SCT110 86 71     61%   92 29.89 29.84      
Jul 27 20:53 Calm 10 Mostly Clear FEW110 88 71     57%   94 29.89 29.84      
Jul 27 19:53 3 10 Clear   89 72     57%   96 29.88 29.83      
Jul 27 18:53 5 10 Clear CLR 90 72     56%   97 29.89 29.85      
Jul 27 17:53 6 10 Clear CLR 94 70     46%   100 29.89 29.84      
Jul 27 16:53 SW 8 10 Clear CLR 95 68     42%   100 29.9 29.85      
Jul 27 15:53 Calm 10 Clear CLR 96 67     39%   100 29.93 29.88      
Jul 27 14:53 3 10 Clear CLR 94 66     40%   97 29.95 29.91      
Jul 27 13:53 5 10 Mostly Clear FEW080 94 65     39%   96 29.97 29.93      
Jul 27 12:53 3 10 Partly Cloudy SCT080 95 67     40%   99 30 29.95      
Jul 27 11:53 6 10 Clear CLR 93 68     44%   97 30.01 29.96      
Jul 27 10:53   10 Clear CLR 89 68     50%   93 30.02 29.97      
Jul 27 09:53 Calm 10 Clear CLR 87 70     57%   92 30.02 29.98      
Jul 27 05:53 Calm 10 Clear CLR 76 72     88%   77 29.99 29.95      
Jul 27 04:53 Calm 10 Clear CLR 79 71     77%   82 29.98 29.93      
Jul 27 03:53 Calm 9 Clear CLR 74 71     91%   75 29.99 29.95      
Jul 27 01:53 Calm 7 Clear CLR 74 71     91%   75 30.01 29.96      
Jul 27 00:53 Calm 10 Clear CLR 75 72     90%   76 30.02 29.97      
Jul 26 23:53 Calm 10 Clear CLR 76 71     85%   77 30.01 29.96      
Jul 26 22:53 Calm 10 Clear CLR 78 71     79%   79 30.01 29.97      
Jul 26 21:53 Calm 10 Clear CLR 79 72     79%   82 30.03 29.98      
Jul 26 20:53 Calm 10 Clear CLR 82 71     69%   86 30.02 29.98      
Jul 26 19:53 Calm 10 Clear CLR 85 72     65%   91 30.02 29.98      
Jul 26 18:53 Calm 10 Clear CLR 90 68     49%   94 30.01 29.97      
Jul 26 17:53 Calm 10 Clear CLR 91 65     42%   93 30.01 29.97      
Jul 26 16:53   10 Clear CLR 92 64     40%   94 30.03 29.98      
Jul 26 15:53 7 10 Clear CLR 93 64     38%   95 30.03 29.99      
Jul 26 14:53 5 10 Mostly Clear FEW050 93 66     41%   96 30.05 30.01      
Jul 26 13:53 6 10 Clear CLR 93 67     43%   97 30.08 30.03      
Jul 26 12:53 6 10 Mostly Clear FEW055 92 67     44%   95 30.09 30.04      
Jul 26 11:53 3 10 Partly Cloudy SCT042 92 68     46%   96 30.09 30.05      
Jul 26 10:53 SW 5 10 Clear CLR 89 69     52%   94 30.1 30.05      
Jul 26 09:53 Calm 10 Clear CLR 86 72     63%   92 30.09 30.05      
Jul 26 08:53 Calm 10 Clear CLR 82 73     74%   87 30.1 30.06      
Jul 26 07:53 Calm 10 Clear CLR 78 73     85%   80 30.1 30.05      
Jul 26 06:53 Calm 9 Clear CLR 73 70     90%   74 30.08 30.04      
Jul 26 05:53 Calm 10 Clear CLR 75 70     84%   76 30.08 30.03      
Jul 26 04:53 Calm 8 Clear CLR 72 69     91%   73 30.08 30.03      
Jul 26 03:53 Calm 6 Fog/Mist CLR 73 70     90%   74 30.08 30.03      
Jul 26 02:53 Calm 5 Fog/Mist CLR 73 71     94%   74 30.08 30.04      
Jul 26 01:53 Calm 6 Fog/Mist CLR 74 71     91%   75 30.08 30.03      
Jul 26 00:53 Calm 7 Clear CLR 75 72     90%   76 30.08 30.03      
Jul 25 23:53 Calm 8 Clear CLR 75 73     94%   77 30.05 30.01      
Jul 25 22:53 Calm 10 Clear CLR 76 71     85%   77 30.06 30.01      
Jul 25 21:53 Calm 10 Clear CLR 77 72     84%   78 30.05 30.01      
Jul 25 20:53 Calm 10 Clear CLR 81 71     72%   85 30.06 30.01      
Jul 25 19:53 Calm 10 Clear CLR 87 68     53%   91 30.05 30.01      
Jul 25 18:53 5 10 Clear CLR 91 69     49%   96 30.05 30.01      
Jul 25 17:53 Calm 10 Clear CLR 92 68     46%   96 30.04 30      
Jul 25 16:53 6 10 Clear CLR 93 68     44%   97 30.04 30      
Jul 25 15:53   10 Clear CLR 93 69     46%   98 30.06 30.01      
Jul 25 14:53 6 10 Partly Cloudy SCT046 92 70     49%   98 30.07 30.03      
Jul 25 13:53 3 10 Mostly Clear FEW043 92 68     46%   96 30.07 30.03      
Jul 25 12:53 SSW 5 10 Partly Cloudy SCT042 92 69     47%   97 30.08 30.04      
Jul 25 11:53 3 10 Mostly Clear FEW038 91 70     50%   97 30.09 30.05      
Jul 25 09:53 Calm 10 Clear CLR 86 72     63%   92 30.1 30.05      
Jul 25 08:53 3 10 Clear CLR 81 72     74%   85 30.1 30.05      
Jul 25 07:53 Calm 10 Clear CLR 77 73     88%   79 30.09 30.05      
Jul 25 06:53 Calm 3 Fog/Mist CLR 73 71     94%   74 30.08 30.03      
Jul 25 06:51 Calm 3 Fog/Mist CLR 73 70     89%   75 30.08        
Jul 25 06:36 Calm 2.5 Fog/Mist CLR 73 70     90%   74 30.07        
Jul 25 05:53 Calm 4 Fog/Mist CLR 73 70     90%   74 30.06 30.02      
Jul 25 04:53 Calm 3 Fog/Mist CLR 73 72     96%   75 30.04 29.99      
Jul 25 03:53 Calm 5 Fog/Mist CLR 74 72     94%   75 30.03 29.98      
Jul 25 02:53 Calm 6 Fog/Mist CLR 75 73     94%   77 30.01 29.97      
Jul 25 01:53 Calm 6 Fog/Mist CLR 75 72     90%   76 30.01 29.97      
Jul 25 00:53 Calm 9 Clear CLR 76 73     91%   77 30.01 29.97      
Jul 24 23:53 Calm 10 Clear CLR 77 73     88%   79 30.02 29.98      
Jul 24 22:53 Calm 10 Clear CLR 78 74     87%   80 30 29.96      
Jul 24 21:53 Calm 10 Clear CLR 79 76     90%   83 29.98 29.94      
Jul 24 20:53 Calm 10 Clear CLR 81 75     82%   87 29.95 29.92      
Jul 24 19:53 Calm 10 Clear CLR 84 74     72%   91 29.94 29.91      
Jul 24 18:53 Calm 10 Clear CLR 90 71     54%   96 29.93 29.88      
Jul 24 17:53 Calm 10 Clear CLR 91 72     54%   99 29.93 29.88      
Jul 24 16:53 Calm 10 Clear CLR 91 72     54%   99 29.93 29.89      
Jul 24 15:53 Calm 10 Mostly Cloudy BKN040 89 75     63%   99 29.94 29.9      
Jul 24 14:53 Calm 10 Mostly Cloudy FEW038 BKN047 BKN055 93 71     49%   100 29.95 29.91      
Jul 24 13:53 Calm 10 Clear CLR 89 70     53%   94 29.97 29.93      
Jul 24 12:53 E 3 10 Clear CLR 88 70     55%   93 29.98 29.94      
Jul 24 11:53 SE 5 10 Clear CLR 87 71     59%   93 29.98 29.94      
Jul 24 10:53 Calm 10 Clear CLR 82 72     72%   87 29.98 29.94      
Jul 24 09:53 Calm 10 Clear CLR 78 73     85%   80 29.98 29.95      
Jul 24 08:53 Calm 10 Clear CLR 75 72     90%   76 29.97 29.94      
Jul 24 07:53 Calm 10 Clear CLR 74 70     87%   75 29.96 29.93      
Jul 24 06:53 Calm 3 Fog/Mist CLR 71 69     93%   72 29.94 29.91      
Jul 24 06:41 Calm 4 Fog/Mist FEW002 71 69     93%   72 29.94        
Jul 24 06:32 Calm 2 Fog/Mist FEW002 71 69     93%   72 29.94        
Jul 24 06:19 Calm 5 Fog/Mist FEW002 71 69     93%   72 29.93        
Jul 24 05:53 Calm 8 Clear CLR 71 69     93%   72 29.93 29.88      
Jul 24 04:53 Calm 10 Clear CLR 72 69     91%   73 29.92 29.87      
Jul 24 04:11 3 10 Partly Cloudy SCT003 72 70     93%   73 29.92        
Jul 24 04:03 3 10 Mostly Cloudy BKN003 72 70     93%   73 29.92        
Jul 24 03:53 NW 6 7 Partly Cloudy SCT002 72 70     93%   73 29.91 29.87      
Jul 24 03:38 Calm 8 Partly Cloudy SCT002 72 70     93%   73 29.9        
Jul 24 03:02 3 6 Fog/Mist BKN002 BKN090 72 70     93%   73 29.91        
Jul 24 02:53 3 6 Fog/Mist SCT002 72 71     97%   73 29.92 29.87      
Jul 24 02:44 Calm 5 Fog/Mist FEW001 72 70     93%   73 29.92        
Jul 24 01:53 Calm 6 Fog/Mist CLR 72 70     93%   73 29.93 29.89      
Jul 24 00:53 Calm 10 Clear CLR 73 71     94%   74 29.91 29.86     0
Jul 24 00:14 SSE 3 10 Mostly Clear FEW003 72 70     93%   73 29.91        
Jul 23 23:53 SSE 3 10 Clear CLR 72 70     93%   73 29.9 29.86      
Jul 23 23:35 3 10 Mostly Clear FEW002 FEW110 72 70     93%   73 29.9        
Jul 23 22:53 Calm 10 Mostly Clear FEW120 73 71     94%   74 29.9 29.86 0    
Jul 23 21:53 NW 6 10 Light Rain FEW100 SCT120 72 70     93%   73 29.9 29.86 0 0  
Jul 23 20:53 NW 3 10 Light Rain BKN100 BKN120 72 70     93%   73 29.92 29.88 0    
Jul 23 19:53 Calm 10 Partly Cloudy FEW065 FEW095 SCT110 73 68     84%   74 29.91 29.88 0    
Jul 23 19:07 SE 6 3 Rain and Fog/Mist FEW004 BKN030 OVC100 71 70     96%   72 29.91   0    
Jul 23 18:57 7 1 Heavy Rain and Fog/Mist FEW004 BKN030 OVC042 71 69     93%   72 29.91   0    
Notice The following observation data may not be complete
Jul 23 18:53 6 0.5 Heavy Rain and Fog FEW004 BKN025 OVC042   69      %         0   0
Jul 23 18:44 5 0.5 Heavy Rain and Fog BKN025 BKN034 OVC044 73 71     94%   74     0    
Jul 23 18:31 N 10 1.75 Haze FEW036 BKN046 OVC055 79 65     62%   80          
Jul 23 17:53 3 10 Clear CLR 94 69     45%   99 29.81 29.77      
Jul 23 15:53 3 10 Mostly Cloudy BKN065 BKN085 94 67     41%   98 29.84 29.79      
Jul 23 14:53 5 10 Mostly Clear FEW070 98 62     31%   99 29.84 29.79      
Jul 23 13:53 3 10 Clear CLR 97        %     29.88 29.83      
Jul 23 12:53 3 10 Clear CLR 96        %     29.9 29.85      
Jul 23 11:53 3 10 Clear CLR 93 69     46%   98 29.92 29.87      
Jul 23 10:53 NNW 6 10 Clear CLR 90 70     52%   95 29.93 29.88      
Jul 23 09:53 Calm 10 Clear CLR 86 72     63%   92 29.94 29.89      
Jul 23 08:53 Calm 10 Clear CLR 85 73     68%   92 29.94 29.89      
Jul 23 07:53 Calm 10 Clear CLR 79 74     85%   83 29.93 29.88      
Jul 23 06:53 Calm 5 Fog/Mist CLR 74 73     97%   76 29.91 29.86      
Jul 23 05:53 Calm 7 Clear CLR 74 71     91%   75 29.9 29.85      
Jul 23 04:53 Calm 10 Clear CLR 75 71     88%   76 29.89 29.84      
Jul 23 02:53 Calm 10 Clear CLR 76 73     91%   77 29.88 29.83      
Jul 23 01:53 Calm 8 Clear CLR 75 72     90%   76 29.89 29.85      
Jul 23 00:53 Calm 9 Clear CLR 76 73     91%   77 29.9 29.85      
Jul 22 23:53 Calm 10 Clear CLR 77 73     88%   79 29.9 29.85      
Jul 22 22:53 Calm 10 Clear CLR 79 73     82%   82 29.92 29.87      
Jul 22 21:53 Calm 10 Clear CLR 81 72     74%   85 29.9 29.86      
Jul 22 20:53 3 10 Clear CLR 85 71     63%   90 29.89 29.85      
Jul 22 19:53 Calm 10 Clear CLR 89 70     53%   94 29.88 29.83      
Jul 22 18:53 5 10 Clear CLR 92 67     44%   95 29.88 29.83      
Jul 22 17:53 3 10 Clear CLR 95 67     40%   99 29.88 29.83      
Jul 22 16:53 Calm 10 Clear CLR 95 65     37%   98 29.89 29.85      
Jul 22 15:53   10 Clear CLR 95 66     39%   98 29.9 29.85      
Jul 22 14:53 3 10 Clear CLR 96 64     35%   98 29.92 29.87      
Jul 22 13:53   10 Mostly Clear FEW047 94 67     41%   98 29.94 29.89      
Jul 22 12:53   10 Clear CLR 95 68     42%   100 29.96 29.91      
Jul 22 11:53 Calm 10 Clear CLR 93 69     46%   98 29.97 29.92      
Jul 22 10:53 3 10 Clear CLR 90 70     52%   95 29.97 29.92      
Jul 22 09:53 5 10 Clear CLR 87 71     59%   93 29.98 29.93      
Jul 22 08:53 Calm 10 Clear CLR 84 71     65%   89 29.98 29.93      
Jul 22 07:53 Calm 8 Clear CLR 78 74     87%   80 29.97 29.92      
Jul 22 06:53 Calm 3 Fog/Mist CLR 73 71     94%   74 29.95 29.91      
Jul 22 06:28 Calm 2.5 Fog/Mist CLR 73 72     96%   75 29.95        
Jul 22 05:53 Calm 4 Fog/Mist CLR 74 71     91%   75 29.94 29.89      
Jul 22 04:53 Calm 5 Fog/Mist CLR 74 72     94%   75 29.93 29.88      
Jul 22 03:53 Calm 5 Fog/Mist CLR 75 72     90%   76 29.93 29.88      
Jul 22 02:53 Calm 6 Fog/Mist CLR 75 73     94%   77 29.94 29.9      
Jul 22 01:53 Calm 6 Fog/Mist CLR 76 73     91%   77 29.96 29.91      
Jul 22 00:53 Calm 8 Clear CLR 77 73     88%   79 29.97 29.92      
Jul 21 23:53 Calm 10 Clear CLR 78 73     85%   80 29.97 29.93      
Jul 21 22:53 Calm 10 Clear CLR 81 72     74%   85 29.96 29.91      
Jul 21 21:53 Calm 10 Clear CLR 85 71     63%   90 29.96 29.91      
Jul 21 20:53 Calm 10 Clear CLR 85 71     63%   90 29.95 29.9      
Jul 21 19:53 Calm 10 Clear CLR 89 68     50%   93 29.94 29.9      
Jul 21 18:53 Calm 10 Clear CLR 93 68     44%   97 29.94 29.89      
Jul 21 17:53 Calm 10 Clear CLR 95 66     39%   98 29.95 29.9      
Jul 21 16:53 WSW 6 10 Clear CLR 96 65     36%   99 29.96 29.91      
Jul 21 15:53 6 10 Clear CLR 96 65     36%   99 29.97 29.92      
Jul 21 14:53 6 10 Clear CLR 96 68     40%   101 29.99 29.94      
Jul 21 13:53 Calm 10 Mostly Clear FEW050 94 65     39%   96 30.01 29.96      
Jul 21 12:53 6 10 Mostly Clear FEW047 FEW060 93 68     44%   97 30.02 29.98      
Jul 21 11:53 WNW 6 10 Clear CLR 93 69     46%   98 30.03 29.98      
Jul 21 10:53 3 10 Clear CLR 92 71     51%   99 30.04 29.99      
Jul 21 09:53 W 5 10 Clear CLR 89 73     59%   97 30.04 29.99      
Jul 21 08:53 Calm 10 Clear CLR 85 74     70%   92 30.04 30      
Jul 21 07:53 Calm 7 Clear CLR 78 75     90%   80 30.04 30      
Jul 21 07:28 Calm 3 Fog/Mist CLR 76 73     91%   77 30.04        
Jul 21 06:53 Calm 2 Fog/Mist CLR 74 72     94%   75 30.03 29.99      
Jul 21 06:33 Calm 1.75 Fog/Mist CLR 74 71     91%   75 30.02        
Jul 21 06:23 Calm 0.75 Fog/Mist CLR 74 72     94%   75 30.03        
Jul 21 05:53 Calm 1 Fog/Mist CLR 74 71     91%   75 30.02 29.98      
Jul 21 05:45 Calm 1.5 Fog/Mist CLR 74 72     94%   75 30.02        
Jul 21 04:53 Calm 2.5 Fog/Mist FEW001 74 71     91%   75 30.01 29.96      
Jul 21 04:14 Calm 2.5 Fog/Mist CLR 75 72     90%   76 30.02        
Jul 21 04:01 Calm 1.5 Fog/Mist CLR 75 72     90%   76 30.01        
Jul 21 03:53 Calm 2 Fog/Mist CLR 75 73     94%   77 30.01 29.96      
Jul 21 03:42 Calm 1 Fog/Mist CLR 75 73     94%   77 30.01        
Jul 21 03:12 Calm 2 Fog/Mist CLR 75 74     96%   77 30.01        
Jul 21 02:53 Calm 1.25 Fog/Mist CLR 76 73     91%   77 30.01 29.96      
Jul 21 02:47 Calm 1.75 Fog/Mist CLR 75 73     94%   77 30.01        
Jul 21 01:53 Calm 3 Fog/Mist CLR 76 74     94%   78 30.02 29.97      
Jul 21 00:53 Calm 3 Fog/Mist CLR 77 75     94%   79 30.03 29.98      
Jul 20 23:53 Calm 4 Fog/Mist CLR 78 76     93%   80 30.04 30      
Jul 20 22:53 Calm 6 Fog/Mist CLR 79 76     90%   83 30.04 29.99      
Jul 20 21:53 Calm 8 Clear CLR 80 77     90%   86 30.03 29.98      
Jul 20 20:53 Calm 10 Clear CLR 82 76     82%   89 30.01 29.97      
Jul 20 19:53 Calm 10 Clear CLR 86 76     72%   96 30.01 29.97      
Jul 20 18:53 Calm 10 Clear CLR 89 73     59%   97 30.01 29.97      
Jul 20 17:53 5 10 Clear CLR 91 71     52%   98 30.02 29.98      
Jul 20 16:53 6 10 Clear CLR 94 68     43%   99 30.03 29.98      
Jul 20 15:53 Calm 10 Mostly Clear FEW050 95 68     42%   100 30.04 30      
Jul 20 14:53 5 10 Mostly Clear FEW055 96 69     42%   102 30.06 30.01      
Jul 20 13:53 5 10 Clear CLR 95 70     44%   102 30.08 30.03      
Jul 20 12:53 WNW 5 10 Clear CLR 94 71     48%   101 30.1 30.05      
Jul 20 11:53 3 10 Mostly Clear FEW038 93 72     51%   101 30.12 30.07      
Jul 20 10:53 6 10 Clear CLR 90 72     56%   97 30.12 30.08      
Jul 20 09:53 Calm 10 Clear CLR 88 74     63%   97 30.12 30.08      
Jul 20 08:53 Calm 10 Clear CLR 84 76     77%   93 30.12 30.08      
Jul 20 07:53 Calm 4 Fog/Mist CLR 78 75     90%   80 30.12 30.08      
Jul 20 07:38 Calm 2.5 Fog/Mist CLR 76 74     94%   78 30.12        
Jul 20 07:18 Calm 3 Fog/Mist CLR 75 73     94%   77 30.12        
Jul 20 07:10 Calm 2.5 Fog/Mist CLR 75 73     94%   77 30.12        
Jul 20 06:53 Calm 1.75 Fog/Mist CLR 74 72     94%   75 30.12 30.08      
Jul 20 06:50 Calm 1.75 Fog/Mist CLR 73 72     94%   75 30.12        
Jul 20 04:53 Calm 3 Fog/Mist BKN110 74 72     94%   75 30.09 30.06      
Jul 20 04:29 Calm 3 Fog/Mist BKN110 74 72     94%   75 30.09        
Jul 20 03:53 Calm 2.5 Fog/Mist CLR 75 73     94%   77 30.09 30.05      
Jul 20 03:46 Calm 2 Fog/Mist CLR 75 73     94%   77 30.09        
Jul 20 03:27 Calm 0.75 Fog/Mist CLR 75 73     94%   77 30.09        
Jul 20 03:16 Calm 1.25 Fog/Mist CLR 75 74     96%   77 30.09        
Jul 20 03:00 Calm 2.5 Fog/Mist CLR 75 73     94%   77 30.09        
Jul 20 02:22 Calm 2.5 Fog/Mist CLR 75 73     94%   77 30.09        
Jul 20 01:53 Calm 3 Fog/Mist CLR 76 74     94%   78 30.1 30.05      
Jul 20 01:37 Calm 3 Fog/Mist CLR 76 74     94%   78 30.1        
Jul 20 01:30 Calm 2.5 Fog/Mist CLR 76 74     94%   78 30.1        
Jul 20 00:53 Calm 3 Fog/Mist CLR 77 75     94%   79 30.1 30.05      
Jul 20 00:14 Calm 4 Fog/Mist CLR 78 75     90%   80 30.1        
Jul 20 00:03 Calm 2 Fog/Mist CLR 78 76     93%   80 30.1        
Jul 19 23:32 Calm 3 Fog/Mist CLR 78 76     93%   80 30.09        
Jul 19 23:14 Calm 2 Fog/Mist CLR 78 77     96%   81 30.09        
Jul 19 22:57 Calm 1.5 Fog/Mist CLR 79 77     94%   83 30.09        
Jul 19 22:45 Calm 4 Fog/Mist CLR 79 77     94%   83 30.09        
Jul 19 22:26 Calm 2.5 Fog/Mist CLR 80 77     90%   86 30.08        
Jul 19 21:53 Calm 4 Fog/Mist CLR 80 78     94%   86 30.08 30.03      
Jul 19 20:53 Calm 8 Clear CLR 82 79     90%   92 30.06 30.02      
Jul 19 19:53 Calm 10 Mostly Clear FEW100 84 77     80%   94 30.06 30.02      
Jul 19 18:53 Calm 10 Partly Cloudy SCT100 87 78     75%   100 30.06 30.02     0
Jul 19 17:53 Calm 10 Clear   87 76     70%   98 30.06 30.02 0    
Notice The following observation data may not be complete
Jul 19 16:53 6 5 Light Rain and Fog/Mist FEW075 OVC090   74      %     30.09 30.05 0    
Jul 19 15:53 W 3 10 Mostly Cloudy SCT075 BKN100 87 73     63%   95 30.09 30.05      
Jul 19 14:53 Calm 10 Mostly Cloudy FEW050 SCT070 BKN095 88 73     61%   96 30.1 30.06      
Jul 19 13:53 SSE 3 10 Mostly Cloudy BKN060 94 66     40%   97 30.12 30.07      
Jul 19 12:53 5 10 Clear CLR 94 68     43%   99 30.14 30.09      
Jul 19 11:53 5 10 Partly Cloudy SCT046 SCT055 SCT065 91 68     47%   95 30.14 30.1      
Jul 19 10:53 Calm 10 Clear CLR 91 71     52%   98 30.14 30.1      
Jul 19 09:53 Calm 10 Clear CLR 87 72     61%   94 30.14 30.1      
Jul 19 05:53 Calm 5 Fog/Mist CLR 73 70     90%   74 30.12 30.07      
Jul 19 04:53 Calm 5 Fog/Mist CLR 73 71     94%   74 30.11 30.07      
Jul 19 03:53 Calm 5 Fog/Mist CLR 74 71     91%   75 30.1 30.06      
Jul 19 02:53 Calm 6 Fog/Mist CLR 74 72     94%   75 30.1 30.06      
Jul 19 01:53 Calm 7 Clear CLR 75 72     90%   76 30.09 30.05      
Jul 19 00:53 Calm 7 Clear CLR 75 73     94%   77 30.09 30.05      
Jul 18 22:53 Calm 10 Clear CLR 77 73     88%   79 30.08 30.03      
Jul 18 21:53 Calm 10 Clear CLR 79 73     82%   82 30.06 30.02      
Jul 18 20:53 Calm 10 Clear CLR 81 73     77%   86 30.05 30.01      
Jul 18 19:53 Calm 10 Clear CLR 85 71     63%   90 30.03 30      
Jul 18 18:53 Calm 10 Clear CLR 91 68     47%   95 30.02 29.98      
Jul 18 17:53 Calm 10 Partly Cloudy SCT065 92 68     46%   96 30.02 29.98      
Jul 18 16:53 Calm 10 Partly Cloudy SCT055 91 69     49%   96 30.03 29.99      
Jul 18 15:53 Calm 10 Clear CLR 93 64     38%   95 30.03 29.99      
Jul 18 14:53 S 3 10 Partly Cloudy FEW050 SCT070 90 67     47%   93 30.05 30.01      
Jul 18 13:53 5 10 Mostly Clear FEW050 93 65     40%   95 30.06 30.02      
Jul 18 12:53 3 10 Clear CLR 91 67     45%   94 30.07 30.03      
Jul 18 11:53 3 10 Clear CLR 89 68     50%   93 30.09 30.04      
Jul 18 10:53 Calm 10 Clear CLR 88 70     55%   93 30.08 30.04      
Jul 18 09:53 Calm 10 Clear CLR 84 70     63%   88 30.08 30.04      
Jul 18 08:53 Calm 9 Clear CLR 76 70     82%   77 30.08 30.04      
Jul 18 05:53 Calm 2.5 Fog/Mist CLR 67 64     90%     30.05 30.01      
Jul 18 05:38 Calm 3 Fog/Mist CLR 67 65     93%     30.05        
Jul 18 05:28 Calm 2.5 Fog/Mist CLR 67 65     93%     30.04        
Jul 18 04:53 Calm 3 Fog/Mist CLR 68 65     90%     30.03 29.99      
Jul 18 03:53 Calm 4 Fog/Mist CLR 68 66     93%     30.02 29.98      
Jul 18 03:09 Calm 2.5 Fog/Mist CLR 69 66     90%     30.01        
Jul 18 02:53 Calm 4 Fog/Mist CLR 69 68     96%     30.02 29.98      
Jul 18 01:53 Calm 4 Fog/Mist CLR 70 68     93%     30.02 29.98      
Jul 18 00:53 Calm 6 Fog/Mist CLR 71 69     93%   72 30.01 29.97      
Jul 17 22:53 Calm 10 Clear CLR 73 69     87%   74 30 29.96      
Jul 17 21:53 Calm 10 Clear CLR 76 70     82%   77 29.97 29.93      
Jul 17 20:53 Calm 10 Clear CLR 79 69     72%   80 29.95 29.91      
Jul 17 19:53 Calm 10 Clear CLR 84 68     59%   87 29.95 29.91      
Jul 17 18:53 Calm 10 Clear CLR 89 64     44%   90 29.95 29.91      
Jul 17 17:53 ESE 6 10 Clear CLR 91 62     38%   92 29.96 29.92      
Jul 17 14:53 Calm 10 Mostly Clear FEW055 92 62     37%   93 29.98 29.94      
Jul 17 13:53 3 10 Clear   91 62     38%   92 29.99 29.95      
Jul 17 12:53 SE 5 10 Partly Cloudy SCT050 89 60     38%   89 30.01 29.97      
Jul 17 11:53 ENE 3 10 Clear CLR 88 61     40%   88 30.01 29.97      
Jul 17 10:53 Calm 10 Mostly Cloudy BKN038 87 66     50%   89 30.01 29.97      
Jul 17 09:53 Calm 10 Clear CLR 84 70     63%   88 30.01 29.97      
Jul 17 08:53 Calm 10 Clear CLR 79 71     77%   82 30.01 29.97      
Jul 17 07:53 Calm 7 Clear CLR 73 70     90%   74 30 29.97      
Jul 17 07:02 Calm 3 Fog/Mist CLR 69 67     93%     30.01        
Jul 17 06:53 Calm 2.5 Fog/Mist CLR 69 68     96%     30.01 29.97      
Jul 17 06:40 Calm 2.5 Fog/Mist CLR 69 66     90%     30.01        
Jul 17 06:27 Calm 3 Fog/Mist CLR 69 68     96%     30        
Jul 17 06:13 Calm 1.75 Fog/Mist CLR 69 66     90%     29.99        
Jul 17 06:08 Calm 4 Fog/Mist CLR 69 67     93%     29.99        
Jul 17 05:53 Calm 2.5 Fog/Mist CLR 69 67     93%     29.98 29.94      
Jul 17 05:43 Calm 4 Fog/Mist CLR 70 67     90%     29.98        
Jul 17 05:36 Calm 2.5 Fog/Mist CLR 69 68     96%     29.98        
Jul 17 04:53 Calm 4 Fog/Mist CLR 70 67     90%     29.96 29.92      
Jul 17 04:15 Calm 5 Fog/Mist CLR 70 68     93%     29.96        
Jul 17 04:07 Calm 2.5 Fog/Mist CLR 70 69     97%     29.96        
Jul 17 03:53 Calm 5 Fog/Mist CLR 71 68     90%   72 29.96 29.92      
Jul 17 02:53 Calm 5 Fog/Mist CLR 71 69     93%   72 29.97 29.93      
Jul 17 01:53 Calm 6 Fog/Mist SCT048 73 71     94%   74 29.97 29.93      
Jul 17 00:53 Calm 7 Clear CLR 73 70     90%   74 29.97 29.93      
Jul 16 23:53 Calm 7 Clear CLR 74 71     91%   75 29.97 29.93      
Jul 16 22:53 Calm 10 Clear CLR 75 72     90%   76 29.97 29.93      
Jul 16 21:53 Calm 10 Clear CLR 77 73     88%   79 29.95 29.91      
Jul 16 20:53 Calm 10 Clear CLR 79 73     82%   82 29.94 29.9      
Jul 16 19:53 Calm 10 Clear CLR 83 71     67%   88 29.94 29.9      
Jul 16 18:53 5 10 Clear CLR 89 65     45%   91 29.93 29.89      
Jul 16 17:53 Calm 10 Clear CLR 91 64     41%   93 29.93 29.89      
Jul 16 16:53 3 10 Clear CLR 91 63     39%   92 29.94 29.9      
Jul 16 15:53 5 10 Clear CLR 91 67     45%   94 29.96 29.91      
Jul 16 14:53 Calm 10 Clear CLR 91 66     44%   94 29.97 29.93      
Jul 16 13:53 3 10 Clear CLR 90 66     45%   93 29.99 29.94      
Jul 16 12:53 Calm 10 Mostly Clear FEW036 90 70     52%   95 30 29.96      
Jul 16 11:53 ESE 5 10 Clear CLR 89 70     53%   94 30.02 29.98      
Jul 16 10:53 3 10 Mostly Clear FEW021 86 72     63%   92 30.03 29.98      
Jul 16 09:59 Calm 10 Partly Cloudy SCT008 SCT013 81 75     82%   87 30.03        
Jul 16 09:53 3 10 Mostly Cloudy BKN007 BKN013 80 75     85%   85 30.03 30      
Jul 16 09:02 SE 5 9 Mostly Cloudy BKN005 77 74     90%   79 30.03        
Jul 16 08:53 SSE 3 9 Mostly Cloudy BKN003 76 74     94%   78 30.03 30      
Jul 16 08:38 Calm 5 Fog/Mist OVC002 76 74     94%   78 30.03        
Jul 16 08:31 Calm 2 Fog/Mist OVC002 75 74     96%   77 30.03        
Jul 16 08:19 Calm 0.5 Fog VV002 75 74     96%   77 30.03        
Jul 16 07:53 Calm 0.25 Fog VV002 75 73     94%   77 30.03 29.99      
Jul 16 07:16 Calm 0.25 Fog VV002 74 73     97%   76 30.03        
Jul 16 06:53 Calm 0.25 Fog VV002 74 72     94%   75 30.03 29.98      
Jul 16 06:42 Calm 0.25 Fog VV002 74 72     94%   75 30.03        
Jul 16 06:21 Calm 0.25 Fog OVC003 74 71     91%   75 30.02        
Jul 16 06:16 Calm 1.5 Fog/Mist OVC003 74 71     91%   75 30.02        
Jul 16 06:13 Calm 4 Fog/Mist OVC003 74 72     94%   75 30.02        
Jul 16 05:53 Calm 3 Fog/Mist OVC005 73 71     94%   74 30.01 29.97      
Jul 16 04:53 Calm 4 Fog/Mist OVC007 74 71     91%   75 30.01 29.96      
Jul 16 04:01 Calm 4 Fog/Mist BKN006 BKN027 73 71     94%   74 30        
Jul 16 03:53 Calm 3 Fog/Mist SCT006 BKN027 73 71     94%   74 30 29.96      
Jul 16 03:46 Calm 3 Fog/Mist FEW006 SCT026 73 71     94%   74 30        
Jul 16 03:19 Calm 4 Fog/Mist BKN025 73 70     90%   74 29.99        
Jul 16 03:10 Calm 2 Fog/Mist FEW025 73 70     90%   74 29.99        
Jul 16 02:53 Calm 4 Fog/Mist CLR 73 72     96%   75 29.98 29.94      
Jul 16 02:22 Calm 3 Fog/Mist FEW002 73 71     94%   74 29.99        
Jul 16 02:12 Calm 4 Fog/Mist CLR 73 71     94%   74 29.99        
Jul 16 02:04 Calm 2.5 Fog/Mist CLR 73 71     94%   74 29.99        
Jul 16 01:53 Calm 4 Fog/Mist CLR 74 71     91%   75 29.99 29.95      
Jul 16 00:53 Calm 3 Fog/Mist CLR 74 72     94%   75 30.01 29.97     0
Jul 15 23:53 Calm 5 Fog/Mist CLR 75 73     94%   77 30.03 29.99      
Jul 15 22:53 Calm 6 Fog/Mist CLR 75 73     94%   77 30.02 29.98      
Jul 15 21:53 SE 3 8 Partly Cloudy FEW047 SCT110 76 74     94%   78 30.02 29.98 0 0  
Jul 15 20:53 Calm 10 Partly Cloudy FEW048 FEW070 SCT085 80 74     82%   85 30.01 29.97      
Jul 15 19:53 Calm 10 Clear CLR 84 72     67%   90 29.99 29.95      
Jul 15 18:53 3 10 Partly Cloudy FEW055 SCT065 SCT090 88 72     59%   95 29.99 29.94      
Jul 15 17:53 3 10 Mostly Clear FEW110 89 72     57%   96 29.98 29.94      
Jul 15 16:53   10 Mostly Clear FEW110 91 72     54%   99 29.99 29.94      
Jul 15 15:53 6 10 Clear CLR 90 70     52%   95 30.01 29.96      
Jul 15 14:53 Calm 10 Partly Cloudy SCT045 90 68     49%   94 30.02 29.98      
Jul 15 13:53 Calm 10 Mostly Cloudy BKN041 88 69     54%   92 30.06 30.01      
Jul 15 12:53 Calm 10 Partly Cloudy SCT037 88 70     55%   93 30.08 30.04      
Jul 15 12:08 Calm 10 Mostly Clear FEW037 88 70     55%   93 30.09        
Jul 15 12:00 Calm 1.25 Haze FEW037 SCT075 87 69     55%   91 30.09        
Jul 15 11:53 SE 3   Partly Cloudy SCT037 SCT075 87 71     59%   93 30.09 30.05      
Jul 15 10:53 Calm 10 Clear CLR 86 68     55%   89 30.1 30.06      
Jul 15 09:53 Calm 10 Mostly Clear FEW014 83 73     72%   89 30.11 30.07      
Jul 15 09:02 Calm 10 Cloudy SCT003 OVC075 79 74     85%   83 30.11        
Jul 15 08:53 Calm 10 Cloudy BKN003 OVC075 77 74     90%   79 30.11 30.08      
Jul 15 07:53 Calm 7 Mostly Cloudy FEW001 BKN080 75 72     90%   76 30.1 30.07      
Jul 15 07:28 Calm 7 Mostly Cloudy SCT002 BKN080 74 72     94%   75 30.1        
Jul 15 07:18 Calm 5 Fog/Mist BKN003 OVC080 74 72     94%   75 30.1        
Jul 15 06:53 Calm 2 Fog/Mist BKN003 OVC085 73 72     96%   75 30.09 30.06      
Jul 15 06:44 Calm 1 Fog/Mist BKN002 OVC085 73 71     94%   74 30.09        
Jul 15 06:26 Calm 0.25 Fog VV002 73 72     96%   75 30.09        
Jul 15 06:10 Calm 0.75 Fog/Mist VV002 73 72     96%   75 30.09        
Jul 15 05:58 Calm 1.75 Fog/Mist BKN002 73 71     94%   74 30.09        
Jul 15 05:53 Calm 2.5 Fog/Mist SCT002 73 71     94%   74 30.09 30.05      
Jul 15 05:39 Calm 2.5 Fog/Mist CLR 74 71     91%   75 30.08        
Jul 15 04:53 Calm 9 Mostly Clear FEW110 74 73     97%   76 30.08 30.04      
Jul 15 03:53 Calm 7 Cloudy FEW002 OVC110 75 72     90%   76 30.08 30.04      
Jul 15 03:43 Calm 7 Cloudy SCT002 OVC110 75 72     90%   76 30.08        
Jul 15 03:31 Calm 8 Cloudy BKN002 OVC110 75 72     90%   76 30.08        
Jul 15 02:53 Calm 9 Cloudy SCT002 SCT090 OVC110 75 73     94%   77 30.09 30.05      
Jul 15 02:28 Calm 3 Fog/Mist BKN002 OVC110 74 73     97%   76 30.09        
Jul 15 02:21 Calm 1.25 Fog/Mist OVC002 74 73     97%   76 30.09        
Jul 15 02:01 Calm 0.75 Fog/Mist VV002 74 72     94%   75 30.09        
Jul 15 01:53 Calm 1 Fog/Mist VV002 74 72     94%   75 30.09 30.06      
Jul 15 01:49 Calm 1.75 Fog/Mist OVC002 73 72     94%   75 30.09        
Jul 15 01:36 Calm 7 Mostly Cloudy BKN002 74 72     94%   75 30.09        
Jul 15 01:26 Calm 6 Fog/Mist BKN001 74 72     94%   75 30.09        
Jul 15 01:13 Calm 4 Fog/Mist SCT001 74 72     94%   75 30.09        
Jul 15 01:09 Calm 2 Fog/Mist BKN001 74 72     94%   75 30.09        
Jul 15 00:51 Calm 1 Fog/Mist VV002 75 72     90%   76 30.09 30.06      
Jul 15 00:41 Calm 2.5 Fog/Mist BKN001 75 73     94%   77 30.09        
Jul 15 00:29 Calm 5 Fog/Mist SCT001 SCT100 75 72     90%   76 30.09        
Jul 14 23:53 Calm 8 Cloudy OVC100 75 72     90%   76 30.09 30.06      
Jul 14 22:53 Calm 10 Clear CLR 76 73     91%   77 30.09 30.05      
Jul 14 21:53 Calm 10 Partly Cloudy SCT015 77 74     90%   79 30.09 30.04      
Jul 14 20:53 Calm 10 Clear CLR 78 75     90%   80 30.08 30.04      
Jul 14 19:53 Calm 10 Clear CLR 80 74     82%   85 30.07 30.04      
Jul 14 18:53 Calm 10 Clear CLR 82 74     77%   88 30.06 30.03     0
Jul 14 17:53 Calm 10 Clear CLR 82 73     74%   87 30.08 30.04      
Jul 14 16:53 SSE 3 10 Clear CLR 82 72     72%   87 30.1 30.06      
Jul 14 15:53 Calm 10 Clear CLR 81 72     74%   85 30.12 30.09   0  
Jul 14 14:53 Calm 10 Clear CLR 80 71     74%   84 30.12 30.09      
Jul 14 13:53 Calm 10 Clear CLR 78 72     82%   79 30.12 30.09 0    
Jul 14 12:53 5 8 Light Rain SCT048 BKN075 BKN090 74 71     91%   75 30.15 30.12 0   0
Notice The following observation data may not be complete
Jul 14 11:53 NNW 5 3 Light Rain and Fog/Mist FEW020 BKN048 OVC100   71      %     30.15 30.12 0    
Notice The following observation data may not be complete
Jul 14 11:50 6 2 Light Rain and Fog/Mist SCT024 BKN050 OVC100   72      %     30.15   0    
Jul 14 10:53 NW 3 10 Mostly Clear FEW047 86 74     67%   94 30.13 30.09 0    
Jul 14 09:53 Calm 10 Partly Cloudy FEW048 SCT065 85 73     68%   92 30.13 30.09      
Jul 14 08:53 Calm 10 Mostly Clear FEW100 79 72     79%   82 30.13 30.09      
Jul 14 07:53 Calm 10 Clear CLR 76 72     88%   77 30.11 30.08      
Jul 14 06:53 Calm 10 Clear CLR 71 69     93%   72 30.11 30.08      
Jul 14 05:53 Calm 8 Partly Cloudy SCT001 71 68     90%   72 30.11 30.08      
Jul 14 05:02 Calm 8 Partly Cloudy SCT002 71 69     93%   72 30.11        
Jul 14 04:53 Calm 6 Fog/Mist BKN002 71 69     93%   72 30.11 30.07      
Jul 14 04:46 Calm 3 Fog/Mist BKN002 71 68     90%   72 30.11        
Jul 14 04:39 Calm 3 Fog/Mist BKN001 71 68     90%   72 30.11        
Jul 14 04:06 Calm 7 Partly Cloudy SCT002 71 68     90%   72 30.1        
Jul 14 03:53 Calm 8 Mostly Cloudy BKN002 71 69     93%   72 30.1 30.06      
Jul 14 03:49 Calm 8 Mostly Cloudy BKN002 72 70     94%   73 30.1        
Jul 14 03:32 Calm 8 Mostly Clear FEW002 71 69     93%   72 30.1        
Jul 14 02:53 Calm 10 Clear CLR 72 69     91%   73 30.1 30.06      
Jul 14 01:53 Calm 10 Clear CLR 72 69     91%   73 30.11 30.06      
Jul 14 00:53 Calm 10 Clear CLR 72 70     93%   73 30.11 30.07      
Jul 13 23:53 Calm 10 Clear CLR 73 70     90%   74 30.12 30.08      
Jul 13 22:53 Calm 10 Clear CLR 73 71     94%   74 30.11 30.07      
Jul 13 21:53 Calm 10 Clear CLR 74 70     87%   75 30.08 30.04      
Jul 13 20:53 Calm 10 Clear CLR 74 70     87%   75 30.06 30.02      
Jul 13 19:53 3 10 Clear CLR 77 69     77%   78 30.07 30.03      
Jul 13 18:53 NNW 3 10 Clear CLR 75 70     84%   76 30.06 30.03     0
Notice The following observation data may not be complete
Jul 13 17:53   10 Mostly Cloudy FEW043 BKN075   68      %     30.09   0    
Jul 13 16:53 Calm 10 Mostly Cloudy BKN048 91 72     54%   99 30.06 30.01 0    
Jul 13 15:53 6 10 Light Rain FEW042 BKN049 BKN100 89 73     59%   97 30.07 30.03 0 0  
Jul 13 14:53 5 10 Mostly Clear FEW042 92 70     49%   98 30.07 30.03      
Jul 13 13:53 SSE 3 10 Partly Cloudy FEW042 SCT060 90 70     52%   95 30.09 30.05      
Jul 13 12:53 NW 6 10 Partly Cloudy SCT038 92 70     49%   98 30.11 30.06      
Jul 13 11:53 Calm 10 Clear CLR 89 71     55%   95 30.13 30.09      
Jul 13 10:53 Calm 10 Clear CLR 86 71     61%   92 30.14 30.1      
Jul 13 07:53 Calm 10 Clear CLR 77 71     82%   78 30.13 30.09      
Jul 13 06:53 Calm 9 Clear CLR 73 70     90%   74 30.12 30.08      
Jul 13 05:53 Calm 10 Clear CLR 75 70     84%   76 30.11 30.06      
Jul 13 04:53 Calm 10 Clear CLR 76 71     85%   77 30.09 30.05      
Jul 13 03:53 Calm 10 Clear CLR 74 71     91%   75 30.08 30.03      
Jul 13 02:53 3 10 Clear CLR 74 71     91%   75 30.07 30.03      
Jul 13 01:53 Calm 10 Clear CLR 75 72     90%   76 30.07 30.03      
Jul 13 00:53 Calm 10 Clear CLR 79 72     79%   82 30.06 30.01      
Jul 12 23:53 Calm 10 Clear CLR 79 74     85%   83 30.06 30.02      
Jul 12 22:53 5 10 Clear CLR 79 74     85%   83 30.05 30.01      
Jul 12 21:53 Calm 10 Clear CLR 79 74     85%   83 30.05 30.01      
Jul 12 20:53 Calm 10 Clear CLR 82 75     79%   89 30.04 30      
Jul 12 19:53 Calm 10 Clear CLR 86 72     63%   92 30.03 29.99      
Jul 12 18:53 Calm 10 Clear CLR 89 70     53%   94 30.02 29.98      
Jul 12 15:53 3 10 Mostly Clear FEW042 92 70     49%   98 30.03 29.99      
Jul 12 14:53 3 10 Mostly Clear FEW041 91 69     49%   96 30.04 30      
Jul 12 12:53 SW 5 10 Mostly Clear FEW033 89 70     53%   94 30.07 30.03      
Jul 10 14:53 7   Partly Cloudy SCT043 89 66     47%   92 30 29.96      
Jul 10 13:53 5   Mostly Clear FEW042 89 68     50%   93 30.02 29.98      
Jul 10 11:53 6   Mostly Clear FEW031 86 68     55%   89 30.04 30      
Jul 10 10:53 5   Clear CLR 84 69     61%   88 30.05 30.01      
Jul 10 09:53 ESE 3   Clear CLR 83 69     63%   87 30.05 30.01      
Jul 10 07:53 Calm   Clear CLR 72 68     87%   73 30.03 29.99      
Jul 10 05:53 Calm   Clear CLR 67 65     93%     30.01 29.97      
Jul 10 04:53 Calm   Clear CLR 67 65     93%     30 29.96      
Jul 10 03:53 Calm   Clear CLR 69 66     90%     29.99 29.96      
Jul 10 02:53 Calm   Clear CLR 70 67     90%     30 29.96      
Jul 10 01:53 Calm   Clear CLR 70 67     90%     30.01 29.97      
Jul 10 00:53 Calm   Clear CLR 72 68     87%   73 30.02 29.98      
Jul 09 23:53 Calm   Clear CLR 73 68     84%   74 30.02 29.98      
Jul 09 22:53 Calm   Clear CLR 74 68     82%   75 30.03 29.99      
Jul 09 21:53 Calm   Clear CLR 74 70     87%   75 30.02 29.99      
Jul 09 20:53 Calm   Clear CLR 78 68     71%   79 30.01 29.98      
Jul 09 19:53 SE 3   Clear CLR 82 69     65%   85 30.01 29.97      
Jul 09 18:53 Calm   Clear CLR 87 65     48%   89 30.01 29.97      
Jul 09 17:53 6   Clear CLR 89 66     47%   92 30.01 29.97      
Jul 09 15:53 5   Clear CLR 90 62     40%   90 30.03 29.99      
Jul 09 14:53 SSE 8   Mostly Clear FEW055 90 62     40%   90 30.07 30.03      
Jul 09 13:53 5   Clear CLR 89 62     41%   90 30.08 30.04      
Jul 09 12:53 5   Clear CLR 88 64     45%   89 30.09 30.05      
Jul 09 11:53 S 7   Clear CLR 86 67     53%   89 30.09 30.06      
Jul 09 10:04 Calm   Partly Cloudy SCT024 81 72     74%   85 30.1        
Jul 09 09:53 Calm   Mostly Cloudy FEW003 BKN024 79 72     79%   82 30.1 30.07      
Jul 09 09:50 Calm   Mostly Cloudy SCT002 BKN024 79 72     79%   82 30.1        
Jul 09 08:53 Calm   Cloudy OVC002 72 71     97%   73 30.1 30.06      
Jul 09 07:53 3   Cloudy OVC002 70 69     97%     30.1 30.06      
Jul 09 06:53 Calm   Cloudy OVC002 69 67     93%     30.08 30.05      
Jul 09 05:53 Calm   Cloudy OVC002 68 67     96%     30.08 30.04      
Jul 09 05:00 Calm   Cloudy OVC002 68 66     93%     30.07        
Jul 09 04:53 Calm   Mostly Cloudy BKN001 68 66     93%     30.07 30.04      
Jul 09 04:48 Calm   Mostly Cloudy BKN001 68 66     94%     30.07        
Jul 09 04:37 Calm   Mostly Cloudy BKN002 68 66     93%     30.07        
Jul 09 04:25 Calm   Mostly Cloudy BKN001 69 67     93%     30.06        
Jul 09 03:53 Calm   Cloudy OVC002 69 68     96%     30.07 30.03      
Jul 09 03:11 Calm   Cloudy OVC002 69 67     93%     30.07        
Jul 09 02:53 Calm   Mostly Cloudy BKN001 70 68     93%     30.07 30.03      
Jul 09 01:53 Calm   Clear CLR 71 68     90%   72 30.07 30.04      
Jul 09 01:05 Calm   Partly Cloudy SCT001 71 69     93%   72 30.09        
Jul 09 00:53 Calm   Clear CLR 72 69     91%   73 30.09 30.06      
Jul 08 23:53 Calm   Clear CLR 72 69     91%   73 30.09 30.06      
Jul 08 22:53 Calm   Clear CLR 73 71     94%   74 30.08 30.05      
Jul 08 21:53 Calm   Clear CLR 75 73     94%   77 30.06 30.03      
Jul 08 20:53 Calm   Clear CLR 77 73     88%   79 30.05 30.02      
Jul 08 19:53 Calm   Clear CLR 79 73     82%   82 30.03 30      
Jul 08 18:53 Calm   Clear CLR 81 74     79%   86 30.02 29.98      
Jul 08 17:53 Calm   Clear CLR 81 72     74%   85 30.03 29.99      
Jul 08 15:53 SE 5   Clear CLR 83 68     61%   86 30.03 29.99      
Jul 08 14:53 Calm   Clear CLR 82 67     60%   85 30.06 30.02      
Jul 08 13:53 Calm   Mostly Clear FEW019 80 67     64%   82 30.1 30.07      
Jul 08 13:32 3   Partly Cloudy SCT020 79 68     69%   80 30.12        
Jul 08 13:21 6   Mostly Cloudy BKN018 78 69     74%   79 30.13        
Jul 08 12:53 5   Mostly Clear FEW017 77 67     71%   78 30.14 30.1 0   0
Jul 08 11:53 NNW 3   Light Rain FEW009 SCT040 BKN110 74 70     87%   75 30.13 30.1 0    
Jul 08 11:32 3   Partly Cloudy FEW009 SCT100 73 70     90%   74 30.12        
Jul 08 10:53 ESE 5   Partly Cloudy FEW045 SCT095 SCT110 73 69     87%   74 30.1 30.07 0    
Jul 08 09:53 5   Mostly Cloudy FEW042 SCT060 BKN090 72 69     91%   73 30.06 30.03 0 0  
Jul 08 08:53 3   Rain BKN110 72 69     91%   73 30.1 30.06 0    
Jul 08 07:53 NW 3   Mostly Clear FEW100 72 69     91%   73 30.08 30.05 0    
Jul 08 06:53 Calm   Light Rain SCT048 SCT060 73 66     79%   74 30.08 30.03 0   0
Jul 08 04:53 Calm   Mostly Clear FEW110 74 72     94%   75 30.02 29.97      
Jul 08 03:53 Calm   Clear CLR 74 72     94%   75 29.99 29.94      
Jul 08 02:53 Calm   Clear CLR 75 73     94%   77 29.98 29.93      
Jul 08 01:53 Calm   Clear CLR 76 73     91%   77 29.99 29.94      
Jul 08 00:53 Calm   Clear CLR 76 73     91%   77 30.01 29.97      
Jul 07 23:53 Calm   Clear CLR 77 74     90%   79 30.02 29.98      
Jul 07 22:53 Calm   Clear CLR 78 75     90%   80 30.01 29.97      
Jul 07 21:53 Calm   Clear CLR 80 76     87%   85 30.01 29.97      
Jul 07 20:53 Calm   Partly Cloudy SCT060 82 76     82%   89 30.01 29.97      
Jul 07 19:53 Calm   Mostly Cloudy BKN065 85 74     70%   92 29.99 29.95      
Jul 07 17:53 Calm   Mostly Clear FEW060 93 68     44%   97 29.98 29.93      
Jul 07 15:53 5   Mostly Clear FEW060 95 68     42%   100 30.01 29.97      
Notice The following observation data may not be complete
Jul 07 14:53     Mostly Clear FEW050          %              
Jul 07 13:53 3   Partly Cloudy SCT050 94 65     39%   96 30.06 30.01      
Jul 07 12:53 Calm   Mostly Clear FEW045 92 67     44%   95 30.07 30.03      
Jul 07 11:53 Calm   Partly Cloudy FEW039 SCT048 92 71     51%   99 30.08 30.04      
Jul 07 10:53 Calm   Clear CLR 89 72     57%   96 30.09 30.05      
Jul 07 09:53 WNW 3   Clear CLR 86 72     63%   92 30.09 30.05      
Jul 07 07:53 Calm   Clear CLR 77 73     88%   79 30.08 30.04      
Jul 07 06:53 Calm   Clear CLR 72 69     91%   73 30.07 30.03      
Jul 07 05:53 Calm   Clear CLR 72 70     93%   73 30.07 30.02      
Jul 07 04:53 Calm   Clear CLR 72 71     97%   73 30.06 30.02      
Jul 07 03:53 Calm   Partly Cloudy SCT049 73 71     94%   74 30.05 30.01      
Jul 07 02:53 Calm   Clear CLR 74 72     94%   75 30.04 30      
Jul 07 01:53 Calm   Mostly Cloudy BKN048 74 73     97%   76 30.05 30.01      
Jul 07 00:53 Calm   Clear CLR 74 71     91%   75 30.06 30.01      
Jul 06 23:53 Calm   Mostly Clear FEW050 75 73     94%   77 30.06 30.02      
Jul 06 22:53 Calm   Clear CLR 76 73     91%   77 30.07 30.03      
Jul 06 21:53 Calm   Clear CLR 77 73     88%   79 30.05 30.02      
Jul 06 20:53 Calm   Partly Cloudy SCT050 79 74     85%   83 30.04 30      
Jul 06 19:53 Calm   Mostly Clear FEW060 83 73     72%   89 30.03 29.99      
Jul 06 18:53 SSW 3   Clear CLR 86 71     61%   92 30.02 29.98     0
Jul 06 17:53 Calm   Mostly Cloudy SCT065 BKN080 89 72     57%   96 30.02 29.98      
Jul 06 16:53 3   Partly Cloudy SCT055 SCT070 87 69     55%   91 30.03 29.99      
Jul 06 15:53 3   Clear CLR 89 68     50%   93 30.04 29.99   0  
Jul 06 14:53 3   Clear CLR 88 68     52%   92 30.05 30.01      
Jul 06 13:53 Calm   Mostly Clear FEW050 89 67     48%   92 30.07 30.03 0    
Jul 05 17:53 5   Partly Cloudy SCT039 85 70     61%   89 30 29.96      
Jul 05 16:53 5   Mostly Cloudy BKN039 86 68     55%   89 30.02 29.98      
Jul 05 15:53 6   Clear CLR 87 67     51%   90 30.03 29.99      
Jul 05 14:53 6   Partly Cloudy FEW038 SCT055 86 67     53%   89 30.02 29.98      
Jul 05 13:53 Calm   Mostly Clear FEW120 82 69     65%   85 30.02 29.98      
Jul 05 13:25 5   Mostly Cloudy FEW019 BKN031 82 69     65%   85 30.02        
Jul 05 12:53 7   Mostly Cloudy SCT014 BKN019 BKN025 79 70     74%   82 30.03 29.99     0
Jul 05 11:53 SE 7   Mostly Cloudy SCT007 SCT100 BKN120 75 71     88%   76 29.99 29.95 0    
Jul 05 11:49 6   Mostly Cloudy FEW007 BKN110 75 72     89%   77 29.99   0    
Jul 05 10:53 3   Light Rain FEW012 SCT047 SCT065 73 69     87%   74 30.06 30.03 0    
Jul 05 09:53 3   Rain FEW033 SCT080 OVC120 70 67     90%     30.08 30.05 0 0  
Jul 05 08:53 Calm   Light Rain BKN110 70 67     90%     30.07 30.04 0    
Jul 05 07:53 NNW 3   Mostly Clear FEW110 71 69     93%   72 30.04 30 0    
Jul 05 06:53 WNW 3   Rain FEW080 OVC110 71 69     93%   72 30.03 29.99 0   1
Jul 05 05:53 Calm   Light Rain OVC110 71 68     90%   72 30.01 29.97 0    
Jul 05 04:53 Calm   Light Rain BKN110 71 69     93%   72 29.98 29.94 0    
Jul 05 04:05 7 4 Light Rain and Fog/Mist SCT023 BKN031 OVC046 74 70     87%   75 29.99   0    
Jul 05 03:53 5 1.25 Heavy Rain and Fog/Mist SCT024 BKN031 OVC110 75 72     90%   76 29.96 29.92 0 0  
Jul 05 02:53 Calm 10 Mostly Cloudy BKN120 76 71     85%   77 29.95 29.91      
Jul 05 01:53 Calm 10 Clear CLR 77 71     82%   78 29.97 29.93      
Jul 05 00:53 Calm 10 Mostly Clear FEW047 81 70     69%   84 29.99 29.95      
Jul 04 23:53 Calm 10 Clear CLR 77 72     84%   78 29.99 29.96      
Jul 04 22:53 Calm 10 Clear CLR 79 71     77%   82 29.99 29.94      
Jul 04 21:53 Calm 10 Clear CLR 80 70     71%   83 29.96 29.92      
Jul 04 20:53 3 10 Clear CLR 80 71     74%   84 29.95 29.91      
Jul 04 19:53 3 10 Clear CLR 82 71     69%   86 29.95 29.91      
Jul 04 18:53 Calm 10 Clear CLR 84 70     63%   88 29.93 29.89      
Jul 04 17:53 5 10 Partly Cloudy FEW045 SCT055 86 69     57%   90 29.94 29.9      
Jul 04 16:53 Calm 10 Mostly Cloudy FEW043 BKN060 87 70     57%   92 29.95 29.91      
Jul 04 15:53 3 10 Partly Cloudy FEW044 SCT050 87 68     53%   91 29.96 29.92      
Jul 04 14:53 SSW 6 10 Partly Cloudy FEW038 SCT048 86 67     53%   89 29.96 29.92      
Jul 04 13:53 3 10 Mostly Clear FEW041 FEW055 86 67     53%   89 29.96 29.93      
Jul 04 12:53 5 10 Clear CLR 84 68     59%   87 29.99 29.95     0
Jul 04 11:53 Calm 10 Clear CLR 83 71     67%   88 30 29.96      
Jul 04 10:53 Calm 10 Clear CLR 82 72     72%   87 30 29.96      
Jul 04 09:53 WNW 3 10 Partly Cloudy SCT014 81 72     74%   85 29.98 29.94   0  
Jul 04 09:51 Calm 10 Partly Cloudy SCT014 81 72     74%   85 29.97        
Jul 04 09:41 3 10 Mostly Cloudy BKN015 81 73     77%   86 29.97        
Jul 04 08:53 Calm 10 Clear CLR 79 74     85%   83 29.95 29.91      
Jul 04 07:53 Calm 8 Mostly Clear FEW013 75 74     96%   77 29.97 29.93 0    
Jul 04 07:37 Calm 5 Fog/Mist SCT014 75 72     90%   76 29.96   0    
Jul 04 06:53 Calm 6 Fog/Mist BKN016 75 73     94%   77 29.97 29.93     0
Jul 04 06:48 Calm 9 Mostly Cloudy BKN016 75 72     89%   77 29.97        
Jul 04 05:53 SSE 3 10 Mostly Clear FEW070 75 71     88%   76 29.96 29.92      
Jul 04 04:53 Calm 10 Mostly Clear FEW045 73 70     90%   74 29.95 29.91      
Jul 04 03:53 Calm 10 Partly Cloudy SCT041 73 72     96%   75 29.96 29.92   0  
Jul 04 00:53 Calm 10 Cloudy SCT045 OVC065 74 72     94%   75 29.99 29.96      
Jul 03 23:53 Calm 10 Clear CLR 74 71     91%   75 30 29.96      
Jul 03 22:53 Calm 10 Mostly Clear FEW060 76 72     88%   77 29.99 29.96      
Jul 03 21:53 Calm 10 Cloudy OVC060 79 73     82%   82 29.99 29.96      
Jul 03 20:53 Calm 10 Mostly Cloudy BKN060 79 71     77%   82 29.97 29.94      
Jul 03 19:53 Calm 10 Clear CLR 82 68     63%   85 29.97 29.93      
Jul 03 18:53 Calm 10 Clear CLR 86 69     57%   90 29.97 29.93      
Jul 03 17:53 SSW 3 10 Clear CLR 88 67     50%   91 29.97 29.93      
Jul 03 16:53 Calm 10 Partly Cloudy SCT070 88 67     50%   91 29.99 29.95      
Jul 03 15:53 Calm 10 Clear CLR 89 69     52%   94 29.99 29.96      
Jul 03 14:53 W 3 10 Mostly Cloudy BKN065 86 67     53%   89 30.01 29.97      
Jul 03 12:53 5 10 Clear CLR 81 66     61%   83 30.04 30      
Jul 03 11:53 3 10 Clear CLR 79 66     65%   80 30.06 30.02      
Jul 03 10:53 5 10 Partly Cloudy SCT048 SCT055 74 68     82%   75 30.07 30.03      
Jul 03 09:53 5 10 Mostly Cloudy FEW010 BKN048 74 69     85%   75 30.06 30.03      
Jul 03 08:53 Calm 10 Partly Cloudy FEW070 SCT085 72 69     91%   73 30.06 30.02      
Jul 03 07:53 Calm 10 Mostly Clear FEW085 71 68     90%   72 30.03 30      
Jul 03 06:53 Calm 10 Mostly Clear FEW070 70 68     93%     30.01 29.97     1
Jul 03 05:53 Calm 10 Mostly Cloudy FEW014 BKN060 71 69     93%   72 30 29.96      
Jul 03 04:53 Calm 10 Mostly Clear FEW006 FEW120 71 69     93%   72 30 29.96 0    
Jul 03 04:43 Calm 10 Mostly Cloudy SCT006 SCT060 BKN120 71 68     90%   72 30   0    
Jul 03 03:53 Calm 10 Mostly Cloudy BKN007 BKN090 71 69     93%   72 29.97 29.93 0 1  
Jul 03 02:53 Calm 4 Rain and Fog/Mist OVC100 71 68     90%   72 30 29.96 0    
Jul 03 02:07 Calm 4 Rain and Fog/Mist   70 68     93%     30   0    
Jul 03 01:53 5   Heavy Rain   70 69     97%     30.01 29.97 0    
Jul 03 01:37 3 1 Heavy Rain and Fog/Mist   70 69     97%     30.05   0    
Jul 03 00:53 Calm 10 Cloudy BKN022 OVC028 75 67     76%   76 30.01 29.97      
Jul 03 00:28 Calm 10 Cloudy BKN024 BKN032 OVC040 75 67     76%   76 30.01        
Jul 02 23:53 N 6 10 Mostly Cloudy FEW050 BKN075 78 74     87%   80 30.03 29.99      
Jul 02 22:53 ESE 3 10 Mostly Cloudy SCT046 BKN065 79 73     82%   82 30.02 29.98      
Jul 02 21:53 Calm 9 Clear CLR 77 74     90%   79 30.02 29.99      
Jul 02 20:53 Calm 10 Clear CLR 78 74     87%   80 30.03 30      
Jul 02 19:53 Calm 10 Clear CLR 81 72     74%   85 30.03 29.99      
Jul 02 18:53 Calm 10 Clear CLR 84 69     61%   88 30.03 29.99      
Jul 02 17:53 5 10 Clear CLR 88 68     52%   92 30.02 29.98      
Jul 02 16:53 Calm 10 Partly Cloudy SCT032 89 70     53%   94 30.03 29.99      
Jul 02 15:53 6 10 Mostly Cloudy BKN033 87 71     59%   93 30.07 30.03      
Jul 02 14:53 3 10 Mostly Cloudy BKN032 BKN039 88 71     57%   94 30.09 30.05      
Jul 02 14:00 3 10 Partly Cloudy FEW029 SCT034 87 69     55%   91 30.11        
Jul 02 13:53 3 10 Mostly Cloudy BKN029 88 70     55%   93 30.11 30.07      
Jul 02 13:50 3 10 Mostly Cloudy BKN029 BKN033 88 72     59%   94 30.11        
Jul 02 13:30 5 10 Mostly Cloudy SCT024 BKN031 86 72     63%   92 30.12        
Jul 02 13:20 3 10 Mostly Cloudy BKN024 BKN031 85 72     65%   91 30.12        
Jul 02 13:09 3 10 Mostly Cloudy SCT024 BKN031 84 71     65%   89 30.13        
Jul 02 12:53 3 10 Mostly Cloudy BKN024 BKN031 83 71     67%   88 30.13 30.1      
Jul 02 12:24 5 10 Partly Cloudy FEW020 SCT032 SCT042 83 72     70%   88 30.14        
Jul 02 11:53 Calm 10 Cloudy OVC019 80 72     76%   84 30.15 30.11      
Jul 02 10:53 5 10 Cloudy OVC020 80 71     74%   84 30.15 30.11      
Jul 02 09:53 Calm 10 Cloudy OVC017 78 71     79%   79 30.14 30.11      
Jul 02 08:53 Calm 10 Cloudy OVC016 76 72     88%   77 30.14 30.11      
Jul 02 08:18 Calm 10 Mostly Cloudy BKN020 74 72     94%   75 30.14        
Jul 02 07:53 Calm 6 Fog/Mist FEW002 FEW029 SCT036 73 70     90%   74 30.14 30.11      
Jul 02 06:53 Calm 5 Fog/Mist FEW009 71 69     93%   72 30.12 30.09      
Jul 02 06:46 Calm 6 Fog/Mist SCT009 71 69     93%   72 30.12        
Jul 02 06:33 NW 3 7 Mostly Cloudy BKN009 71 69     93%   72 30.11        
Jul 02 06:20 Calm 6 Fog/Mist OVC010 70 68     93%     30.1        
Jul 02 06:12 Calm 2.5 Fog/Mist OVC010 70 68     93%     30.1        
Jul 02 06:02 Calm 1.5 Fog/Mist FEW002 OVC010 69 67     93%     30.1        
Jul 02 05:53 Calm 0.75 Fog/Mist SCT002 OVC011 68 67     96%     30.09 30.06      
Jul 02 05:30 Calm 0.75 Fog/Mist VV002 69 68     96%     30.08        
Jul 02 04:53 Calm 0.25 Fog VV002 70 68     93%     30.08 30.04      
Jul 02 03:15 Calm 0.25 Fog VV002 70 68     93%     30.05        
Jul 02 02:53 Calm 1 Fog/Mist VV003 70 68     93%     30.06 30.02      
Jul 02 02:30 Calm 1.5 Fog/Mist BKN004 70 68     93%     30.06        
Jul 02 02:20 Calm 1.75 Fog/Mist SCT002 70 68     93%     30.06        
Jul 02 02:11 Calm 2.5 Fog/Mist BKN002 70 68     93%     30.06        
Jul 02 01:57 Calm 4 Fog/Mist SCT002 70 69     97%     30.06        
Jul 02 01:52 Calm 2.5 Fog/Mist BKN002 70 68     93%     30.06        
Jul 02 01:49 Calm 1.75 Fog/Mist SCT002 70 68     93%     30.06 30.03      
Jul 02 01:09 Calm 3 Fog/Mist FEW002 71 68     90%   72 30.06        
Jul 02 00:53 Calm 5 Fog/Mist CLR 71 69     93%   72 30.07 30.03     0
Jul 01 23:53 Calm 5 Fog/Mist FEW002 72 70     93%   73 30.07 30.03      
Jul 01 23:44 Calm 6 Fog/Mist FEW002 72 71     97%   73 30.07        
Jul 01 22:53 Calm 10 Clear CLR 73 71     94%   74 30.07 30.04      
Jul 01 22:09 Calm 6 Fog/Mist SCT001 74 72     94%   75 30.07        
Jul 01 21:53 Calm 7 Clear CLR 75 72     90%   76 30.06 30.03   0  
Jul 01 21:25 Calm 10 Partly Cloudy SCT004 75 73     94%   77 30.06        
Jul 01 20:53 Calm 9 Mostly Cloudy BKN002 75 72     90%   76 30.05 30.02      
Jul 01 20:39 Calm 9 Mostly Cloudy SCT003 BKN095 75 72     90%   76 30.05        
Jul 01 19:53 5 10 Mostly Cloudy FEW035 BKN110 75 72     90%   76 30.04 30.01 0    
Jul 01 18:53 Calm 10 Light Rain FEW037 SCT055 BKN100 79 70     74%   82 30.04 30.01 0   0
Jul 01 17:53 6 10 Clear CLR 84 70     63%   88 30.02 29.99      
Jul 01 16:53 3 10 Clear CLR 88 70     55%   93 30.03 29.99 0    
Jul 01 15:53 5 10 Light Rain FEW027 SCT044 BKN060 88 70     55%   93 30.04 30 0 0  
Jul 01 14:53 Calm 10 Clear CLR 87 67     51%   90 30.06 30.03      
Jul 01 13:53 3 10 Clear CLR 86 67     53%   89 30.06 30.03      
Jul 01 12:53 Calm 10 Clear CLR 86 68     55%   89 30.07 30.04      
Jul 01 11:53 3 10 Mostly Clear FEW024 82 67     60%   85 30.09 30.06      
Jul 01 10:53 WNW 6 10 Clear CLR 79 68     69%   80 30.1 30.07      
Jul 01 07:53 Calm 10 Clear CLR 70 68     93%     30.04 30      
Jul 01 07:31 Calm 10 Partly Cloudy SCT004 69 67     93%     30.03        
Jul 01 07:08 Calm 10 Mostly Cloudy BKN004 69 67     93%     30.03        
Jul 01 06:53 SW 3 7 Mostly Clear FEW002 68 67     96%     30.01 29.98     0
Jul 01 06:28 Calm 5 Fog/Mist FEW002 68 67     96%     29.99        
Jul 01 05:53 Calm 6 Fog/Mist CLR 68 67     96%     29.98 29.94 0    
Jul 01 04:53 ENE 3 6 Light Rain and Fog/Mist BKN100 BKN120 69 68     96%     30.01 29.97 0    
Jul 01 03:53 3 10 Light Rain FEW075 BKN095 BKN110 69 65     87%     30.06 30.03 0 0  
Jul 01 01:53 Calm 10 Clear CLR 69 68     96%     30 29.97      
Jul 01 00:53 ESE 6 10 Clear CLR 69 68     96%     29.99 29.96     0
Jun 30 23:53 Calm 10 Mostly Clear FEW065 FEW080 FEW120 69 67     93%     30.06 30.03 0    
Jun 30 23:22 3 3 Light Rain and Fog/Mist FEW014 FEW028 OVC043 70 68     93%         0    
Jun 30 23:11   1.75 Heavy Rain and Fog/Mist FEW014 SCT027 BKN049 71 68     90%   72 30.11   0    
Jun 30 21:53 Calm 10 Partly Cloudy SCT050 77 73     88%   79 29.98 29.94      
Jun 30 20:53 Calm 10 Clear CLR 79 74     85%   83 29.93 29.89      
Jun 30 19:53 Calm 10 Clear CLR 83 73     72%   89 29.92 29.88      
Jun 30 18:53 Calm 10 Clear CLR 87 70     57%   92 29.9 29.85     0
Jun 30 17:53 6 10 Clear CLR 88 67     50%   91 29.9 29.86      
Jun 30 16:53 SSE 7 10 Clear CLR 88 65     47%   90 29.92 29.88      
Jun 30 15:53 5 10 Clear CLR 87 65     48%   89 29.94 29.9   0  
Jun 30 14:53 SE 8 10 Clear CLR 86 64     48%   87 29.96 29.91      
Notice The following observation data may not be complete
Jun 30 13:53 7 10 Clear CLR          %              
Jun 30 12:53 Calm 10 Light Rain SCT034 BKN055 BKN080 74 67     79%   75 30.04 30.01 0   0
Jun 30 11:53 Calm 10 Cloudy BKN049 OVC060 74 67     79%   75 30.08 30.05 0    
Jun 30 10:53 3 10 Light Rain FEW023 SCT032 OVC041 72 65     79%   73 30.06 30.03 0    
Jun 30 10:43 3 10 Cloudy SCT023 OVC034 73        %     30.05        
Jun 30 10:16 N 5 10 Cloudy BKN023 BKN028 OVC045 83 74     74%   89 30        
Jun 30 10:07 3 10 Cloudy SCT023 BKN036 OVC060 85 73     68%   92 29.99        
Jun 30 09:53 Calm 10 Cloudy BKN023 BKN039 OVC060 83 73     72%   89 29.99 29.95      
Jun 30 08:53 5 10 Mostly Cloudy BKN018 BKN026 82 74     77%   88 29.96 29.92      
Jun 30 07:53 Calm 9 Cloudy SCT015 BKN022 OVC036 80 75     85%   85 29.94 29.9      
Jun 30 07:32 Calm 8 Mostly Cloudy SCT015 BKN021 BKN036 79 74     85%   83 29.94        
Jun 30 06:53 Calm 9 Cloudy BKN014 BKN019 OVC024 79 74     85%   83 29.94 29.89 0   0
Jun 30 05:53 5 10 Cloudy BKN016 OVC025 79 74     85%   83 29.9 29.86      
Jun 30 05:46 3 10 Cloudy BKN016 BKN024 OVC030 79 74     85%   83 29.9        
Jun 30 05:01 Calm 10 Cloudy OVC013 79 75     88%   83 29.88        
Jun 30 04:53 5 10 Cloudy BKN015 OVC022 79 75     88%   83 29.88 29.83 0    
Jun 30 04:00 Calm 10 Cloudy BKN013 OVC020 79 74     85%   83 29.88        
Jun 30 03:53 Calm 10 Mostly Cloudy BKN015 BKN021 79 73     82%   82 29.87 29.83      
Jun 30 03:40 7 10 Mostly Cloudy SCT013 BKN021 78 73     85%   80 29.87        
Jun 30 03:21 5 10 Partly Cloudy SCT013 SCT050 78 73     85%   80 29.86        
Jun 30 02:53 3 10 Mostly Cloudy BKN013 BKN048 78 73     85%   80 29.85 29.81      
Jun 30 02:51 Calm 10 Mostly Cloudy BKN013 BKN048 79 73     84%   82 29.85        
Jun 30 01:53 SE 3 10 Clear CLR 75 72     90%   76 29.85 29.82      
Jun 30 00:53 Calm 8 Partly Cloudy SCT038 73 71     94%   74 29.89 29.85      
Jun 29 23:53 Calm 10 Clear CLR 74 71     91%   75 29.89 29.85      
Jun 29 22:53 Calm 10 Clear CLR 74 71     91%   75 29.88 29.84      
Jun 29 21:53 Calm 10 Clear CLR 76 71     85%   77 29.86 29.83      
Jun 29 20:53 ESE 3 10 Clear CLR 78 72     82%   79 29.84 29.81      
Jun 29 19:53 3 10 Clear CLR 82 70     67%   86 29.85 29.81      
Jun 29 18:53 SE 6 10 Clear CLR 84 70     63%   88 29.87 29.83      
Jun 29 17:53 5 10 Partly Cloudy FEW040 SCT055 85 70     61%   89 29.88 29.84      
Jun 29 16:53 ESE 6 10 Mostly Cloudy FEW029 BKN060 87 71     59%   93 29.89 29.85      
Jun 29 15:53 SE 7 10 Cloudy FEW029 SCT048 OVC055 83 69     63%   87 29.9 29.86      
Jun 29 14:53 3 10 Cloudy OVC050 82 68     63%   85 29.91 29.87      
Jun 29 13:53 3 10 Cloudy SCT030 SCT036 OVC043 81 69     67%   84 29.92 29.88      
Jun 29 12:53 Calm 10 Cloudy SCT024 OVC034 80 68     67%   83 29.93 29.89      
Jun 29 12:29 SE 6 10 Cloudy BKN024 OVC030 78 68     71%   79 29.93        
Jun 29 12:17 3 10 Cloudy FEW022 OVC030 79 68     69%   80 29.94        
Jun 29 11:53 3 10 Cloudy SCT022 OVC028 79 68     69%   80 29.94 29.9      
Jun 29 10:53 SE 7 10 Cloudy BKN018 OVC025 77 68     74%   78 29.94 29.91      
Jun 29 09:53   10 Cloudy OVC019 76 68     76%   77 29.94 29.91      
Jun 29 08:53 5 10 Clear   75 68     79%   76 29.93 29.89      
Jun 29 08:43 Calm 10 Cloudy BKN011 OVC017 74 68     82%   75 29.93        
Jun 29 07:36 3 10 Cloudy OVC009 73 69     87%   74 29.93        
Jun 29 06:53 5 10 Cloudy OVC012 73 68     84%   74 29.92 29.88      
Jun 29 06:43 5 10 Mostly Cloudy BKN012 73 68     84%   74 29.92        
Jun 29 04:53 Calm 10 Clear CLR 74 67     79%   75 29.91 29.87      
Jun 29 03:53 3 10 Clear CLR 75 68     79%   76 29.91 29.87      
Jun 29 02:53 5 10 Clear CLR 76 66     71%   77 29.91 29.87      
Jun 29 01:53 5 10 Clear CLR 77 67     71%   78 29.92 29.88      
Jun 29 00:53 SE 6 10 Clear CLR 77 66     69%   78 29.92 29.87      
Jun 28 23:53 5 10 Clear CLR 77 66     69%   78 29.92 29.88      
Jun 28 22:53 Calm 10 Clear CLR 78 66     67%   79 29.92 29.88      
Jun 28 21:53 Calm 10 Clear CLR 77 66     69%   78 29.91 29.87      
Jun 28 20:53 Calm 10 Clear CLR 79 66     65%   80 29.9 29.86      
Jun 28 19:53 3 10 Clear CLR 82 65     56%   84 29.9 29.86      
Jun 28 17:53 6 10 Clear CLR 86 62     45%   87 29.9 29.87      
Jun 28 16:53 5 10 Mostly Clear FEW049 87 62     43%   88 29.92 29.89      
Jun 28 15:53 SE 10 10 Partly Cloudy SCT050 86 61     43%   86 29.94 29.91      
Jun 28 14:53 7 10 Mostly Clear FEW050 87 62     43%   88 29.95 29.92      
Jun 28 13:53 SE 6 10 Mostly Cloudy BKN047 BKN055 84 62     48%   85 29.98 29.95      
Jun 28 12:53 Calm 10 Mostly Clear FEW049 84 63     49%   85 29.99 29.96      
Jun 28 10:53 6 10 Clear CLR 82 63     53%   83 30 29.97      
Jun 28 09:53 SSE 8 10 Clear CLR 80 63     56%   81 30.01 29.98      
Jun 28 08:53 Calm 10 Clear CLR 79 66     65%   80 30.02 29.99      
Jun 28 07:53 Calm 10 Clear CLR 71 65     81%   72 30.01 29.97      
Jun 28 06:53 Calm 9 Clear CLR 65 62     90%     30 29.97      
Jun 28 05:53 Calm 8 Mostly Clear FEW050 64 61     90%     29.99 29.96      
Jun 28 04:53 Calm 10 Clear CLR 64 62     93%     29.99 29.96      
Jun 28 03:53 Calm 10 Clear CLR 65 63     93%     29.99 29.96      
Jun 28 02:53 Calm 10 Clear CLR 66 64     93%     29.99 29.96      
Jun 28 01:53 Calm 10 Clear CLR 68 64     87%     30.01 29.97      
Jun 28 00:53 Calm 10 Clear CLR 69 63     81%     30.01 29.98      
Jun 27 23:53 Calm 10 Clear CLR 69 64     84%     30.01 29.97      
Jun 27 22:53 Calm 10 Clear CLR 70 64     81%     30.02 29.99      
Jun 27 21:53 Calm 10 Clear CLR 71 65     81%   72 30 29.97      
Jun 27 20:53 Calm 10 Clear CLR 73 65     76%   74 30 29.97      
Jun 27 19:53 SE 3 10 Clear CLR 79 63     58%   79 29.99 29.96      
Jun 27 18:53 SE 6 10 Clear CLR 83 60     46%   83 29.99 29.96      
Jun 27 17:53 ESE 8 10 Mostly Clear FEW002 85 59     42%   85 30 29.97      
Jun 27 17:14 SE 10 10 Mostly Cloudy FEW002 BKN050 86 60     42%   86 30.01        
Jun 27 16:53 SSE 8 10 Mostly Cloudy BKN050 85 59     42%   85 30.01 29.98      
Jun 27 15:53 5 10 Mostly Clear FEW050 86 59     40%   85 30.02 29.98      
Jun 27 14:53 3 10 Mostly Clear FEW048 87 60     40%   87 30.03 30      
Jun 27 13:53 ESE 6 10 Mostly Clear FEW045 84 61     46%   84 30.05 30.02      
Jun 27 12:53 SSE 6 10 Mostly Clear FEW042 82 60     47%   82 30.06 30.03      
Jun 27 11:53 3 10 Clear CLR 82 61     49%   83 30.07 30.04      
Jun 27 09:53 5 10 Mostly Clear FEW055 77 63     62%   77 30.08 30.06      
Jun 27 08:53 Calm 10 Partly Cloudy SCT060 69 65     87%     30.1 30.07      
Jun 27 07:53 Calm 8 Clear CLR 65 63     93%     30.09 30.06      
Jun 27 06:53 Calm 5 Fog/Mist FEW050 62 60     93%     30.08 30.06      
Jun 27 05:53 Calm 5 Fog/Mist CLR 62 60     93%     30.08 30.05      
Jun 27 04:53 Calm 7 Clear CLR 62 60     93%     30.08 30.05      
Jun 27 03:53 Calm 10 Mostly Cloudy BKN100 63 62     97%     30.07 30.04      
Jun 27 01:53 Calm 7 Clear CLR 63 61     93%     30.07 30.04      
Jun 27 00:53 Calm 8 Clear CLR 64 61     90%     30.08 30.05      
Jun 26 23:53 Calm 9 Clear CLR 65 63     93%     30.07 30.04      
Jun 26 22:53 Calm 10 Clear CLR 66 63     90%     30.08 30.05      
Jun 26 20:53 Calm 10 Clear CLR 70 65     84%     30.07 30.04      
Jun 26 19:53 Calm 10 Clear CLR 75 62     64%   75 30.06 30.03      
Jun 26 18:53 Calm 10 Clear CLR 80 58     47%   80 30.06 30.03      
Jun 26 17:53 3 10 Clear CLR 81 57     44%   81 30.06 30.03      
Jun 26 16:53 Calm 10 Clear CLR 79 60     52%   79 30.08 30.05      
Jun 26 15:53 3 10 Clear CLR 79 58     49%   79 30.1 30.07      
Jun 26 14:53 Calm 10 Clear CLR 80 58     47%   80 30.13 30.1      
Jun 26 13:53 Calm 10 Clear CLR 80 58     47%   80 30.15 30.12      
Jun 26 12:53 5 10 Clear CLR 80 57     45%   80 30.16 30.14      
Jun 26 11:53 Calm 10 Clear CLR 80 59     49%   81 30.19 30.16      
Jun 26 10:53 SE 5 10 Clear CLR 80 57     45%   80 30.19 30.16      
Jun 26 08:53 Calm 10 Clear CLR 72 63     73%   72 30.2 30.17      
Jun 26 07:53 Calm 10 Clear CLR 68 65     90%     30.19 30.16      
Jun 26 06:53 Calm 10 Mostly Clear FEW120 66 64     93%     30.18 30.15      
Jun 26 05:53 Calm 10 Cloudy OVC110 66 63     90%     30.18 30.15      
Jun 26 04:53 Calm 10 Mostly Cloudy BKN110 66 64     93%     30.19 30.16      
Jun 26 03:53 Calm 10 Mostly Cloudy BKN120 66 63     90%     30.2 30.16      
Jun 26 02:53 Calm 10 Clear CLR 66 64     93%     30.19 30.16      
Jun 26 01:53 Calm 10 Clear CLR 66 64     93%     30.19 30.16      
Jun 26 00:53 Calm 10 Clear CLR 66 65     96%     30.19 30.16      
Jun 25 23:53 Calm 10 Clear CLR 67 63     87%     30.19 30.16      
Jun 25 22:53 Calm 10 Clear   66 64     93%     30.19 30.16      
Jun 25 21:53 Calm 10 Clear CLR 68 64     87%     30.18 30.15      
Jun 25 20:53 Calm 10 Clear CLR 72 63     73%   72 30.17 30.14      
Jun 25 19:53 Calm 10 Clear CLR 76 61     60%   76 30.16 30.14      
Jun 25 17:53 Calm 10 Clear CLR 84 53     35%   83 30.17 30.14      
Jun 25 16:53 3 10 Clear CLR 86 52     31%   84 30.18 30.15      
Jun 25 14:53 3 10 Clear CLR 84 54     36%   83 30.21 30.18      
Jun 25 13:53 ESE 3 10 Clear CLR 83 50     32%   81 30.23 30.2      
Jun 25 12:53 6 10 Clear CLR 82 51     34%   81 30.25 30.22      
Jun 25 11:53 3 10 Clear CLR 81 53     38%   80 30.26 30.22      
Jun 25 10:53 6 10 Clear CLR 79 55     44%   79 30.26 30.23      
Jun 25 09:53 3 10 Clear CLR 76 58     54%   76 30.26 30.23      
Jun 25 08:53 SE 3 10 Mostly Cloudy BKN100 71 58     63%   71 30.25 30.22      
Jun 25 07:53 Calm 10 Mostly Cloudy BKN100 BKN120 65 63     93%     30.24 30.22      
Jun 25 06:53 Calm 10 Cloudy OVC100 64 61     90%     30.23 30.2      
Jun 25 06:22 Calm 3 Fog/Mist SCT001 OVC100 62 60     93%     30.22        
Jun 25 06:16 Calm 1 Fog/Mist SCT002 OVC100 62 60     93%     30.22        
Jun 25 06:09 Calm 2 Fog/Mist SCT002 BKN100 62 61     96%     30.22        
Jun 25 05:53 Calm 7 Partly Cloudy SCT100 62 60     93%     30.21 30.19      
Jun 25 04:53 Calm 7 Mostly Clear FEW100 64 62     93%     30.21 30.18      
Jun 25 03:53 Calm 10 Partly Cloudy FEW070 SCT110 65 64     97%     30.21 30.18      
Jun 25 02:53 Calm 10 Cloudy OVC100 67 64     90%     30.2 30.17      
Jun 25 01:53 Calm 10 Mostly Cloudy BKN100 67 65     93%     30.2 30.17      
Jun 25 00:53 Calm 10 Partly Cloudy SCT100 67 65     93%     30.2 30.17      
Jun 24 23:53 Calm 10 Mostly Cloudy SCT100 BKN120 70 66     87%     30.19 30.16      
Jun 24 22:53 Calm 10 Clear CLR 70 68     93%     30.18 30.15      
Jun 24 21:53 Calm 10 Cloudy OVC110 70 67     90%     30.16 30.14      
Jun 24 20:53 Calm 10 Mostly Cloudy BKN100 71 68     90%   72 30.14 30.11      
Jun 24 19:53 Calm 10 Clear CLR 74 65     74%   74 30.14 30.11      
Jun 24 18:53 Calm 10 Clear CLR 78 58     50%   78 30.12 30.09      
Jun 24 17:53 3 10 Clear CLR 81 57     44%   81 30.11 30.08      
Jun 24 16:53 Calm 10 Clear CLR 81 57     44%   81 30.11 30.08      
Jun 24 15:53 Calm 10 Clear CLR 81 56     42%   81 30.11 30.08      
Jun 24 14:53 5 10 Clear CLR 81 58     45%   81 30.13 30.09      
Jun 24 13:53 3 10 Clear CLR 79 58     49%   79 30.14 30.11      
Jun 12 07:23 Calm 2.5 Fog/Mist OVC009 74 72     94%   75 30        
Jun 12 00:53 SE 7 10 Cloudy BKN021 OVC028 76 69     79%   77 29.97 29.93      
Jun 11 20:53 Calm 10 Clear CLR 77 64     64%   77 29.95 29.92      
Jun 11 18:53 SE 6 10 Clear CLR 85 60     43%   85 29.94 29.9      
Jun 11 11:53   10 Partly Cloudy FEW038 SCT047 83 64     53%   84 30.01 29.97      
Jun 08 12:53 NNE 3 10 Partly Cloudy SCT060 79 50     36%   78 30.01 29.99      
Jun 06 06:31 Calm 2 Fog/Mist BKN002 64 63     96%     29.83        
Jun 06 04:56 Calm 2.5 Fog/Mist SCT002 BKN010 65 63     93%     29.82        
Jun 06 03:23 Calm 2 Fog/Mist SCT002 66 64     93%     29.81        
Jun 06 02:33 Calm 2 Fog/Mist SCT002 66 64     93%     29.81        
Jun 05 22:28 Calm 1.5 Clear   70 68     93%     29.81